MET'MAP v2.0
soon released !

Expected late october,
this new version will be
more efficient, smarter,
and hosted on a brand new
server x3 powerfull...
...and still free !


Not compatible ?
Try the mobile version !

LOG IN : | Subscribe | Disclaimer | Who is Orbifly ? |
ICAO code :

TAF - LFDH Auch Lamothe - 24 Feb 2020 19:20 UTC
Data Sources :     NOAA   


- Airport Elevation : 411 ft
- No reported NOTAMs.


LFDH - Auch Lamothe

Latest METAR recorded : 0000/00/00 L :24 TAF LELL 241400Z 2415/2515 VRB03KT CAVOK TX18/2513Z TN07/2506Z TEMPO 2415/2418 23007KT
NO TAF


MET'MAP, your aeronautical weather chart ! - Copyright ORBIFLY December 2007

Programming & Development : Alexandra Zaïnal
Co-Developer : Marc-Olivier Méhu
Technical & hardware support : Manuel Goepfert
Concept & Financing : Baudouin d'Aumeries